Theta_e
292 292 293 292 292 292 293 292 293 294 294 295 294 293 291 291 288 285 283 285 285 286 287 284 286 288 288 287 288 286 286 285 284 286 285 285 285 283 283 284 285 286 287 286 286 287 288 288 289 289 290 291 291 292 292 292 292 293 293 293 294 295 296 297 297 297 297 297 298 298 298 298 299 299
291 291 291 291 291 292 292 291 291 292 292 292 293 292 293 293 290 289 286 286 287 287 286 287 286 286 287 287 287 286 286 284 283 285 285 284 284 282 282 283 284 285 285 285 286 287 287 288 288 289 289 290 291 291 291 291 292 292 292 293 294 295 296 296 296 296 296 296 297 297 297 297 298 298
289 289 289 291 290 292 291 291 290 291 291 291 291 291 292 292 291 290 289 286 288 289 285 286 287 285 286 286 285 285 286 283 283 284 284 284 282 280 282 282 283 284 284 284 285 286 287 287 288 289 289 290 290 291 290 290 291 291 292 293 294 294 295 295 294 294 294 295 295 296 297 297 298 298
288 288 288 289 289 290 290 290 290 289 290 290 290 290 290 290 290 290 289 287 286 287 287 286 286 286 285 285 284 284 285 283 281 284 283 283 281 282 283 282 282 283 283 284 285 286 287 287 288 288 288 289 289 289 290 290 290 290 291 292 293 293 293 293 293 293 294 294 295 295 295 296 296 297
287 287 287 288 288 290 289 289 289 289 289 289 289 289 289 289 288 288 287 285 285 284 286 287 285 285 285 283 284 283 283 283 282 282 283 283 282 283 283 283 282 282 283 284 284 285 286 287 288 288 288 288 288 288 289 289 290 290 291 291 291 292 292 293 293 293 293 293 294 294 295 295 296 296
287 287 287 287 287 288 287 288 288 288 288 287 287 287 287 287 287 288 286 286 286 283 283 284 285 283 284 282 284 283 283 282 283 282 282 282 282 282 283 283 284 282 283 283 284 285 286 287 287 287 287 287 287 288 289 289 289 290 290 290 290 290 291 291 291 291 291 292 293 294 294 294 295 295
287 286 286 286 287 287 286 287 287 288 287 287 286 286 286 286 286 286 287 286 285 284 282 283 282 282 282 282 282 283 283 282 282 281 281 282 282 282 283 283 284 283 283 283 284 285 285 286 286 286 286 286 287 287 288 288 288 289 289 289 289 289 289 289 290 290 291 291 292 293 293 293 294 294
286 285 285 286 286 286 285 285 286 286 286 286 285 285 285 285 286 286 286 286 286 285 281 281 281 282 280 281 282 282 281 280 280 281 281 282 282 282 283 282 283 283 283 283 284 284 285 284 285 285 285 286 286 287 287 287 288 288 288 288 288 288 287 288 288 289 289 290 291 292 292 293 293 293
286 285 285 285 285 285 284 285 285 285 284 285 284 284 284 284 285 284 284 284 285 284 282 281 281 282 281 281 280 280 279 279 280 281 280 281 281 282 283 283 283 283 283 283 283 283 283 283 284 284 285 285 286 286 286 286 286 286 286 286 286 286 286 287 288 288 289 289 290 290 291 292 292 292
286 285 285 285 285 284 284 284 284 284 284 284 283 283 284 284 284 283 283 283 283 283 283 281 279 280 279 279 279 280 280 279 279 279 280 281 281 281 281 282 283 283 283 283 283 282 282 283 283 283 284 284 285 285 285 285 285 285 285 285 285 285 286 287 287 288 289 289 289 289 290 291 291 291
285 285 285 285 285 284 284 285 284 284 283 283 283 284 283 283 282 282 282 282 281 281 282 280 279 278 279 279 277 279 280 280 280 279 280 279 281 281 281 281 282 282 282 282 282 282 282 282 283 283 283 283 284 284 284 284 284 283 283 283 284 284 285 286 287 288 288 288 289 289 289 290 291 291
285 285 285 285 285 285 285 285 284 283 283 283 282 283 283 282 281 281 282 281 280 280 280 279 278 279 278 278 280 280 279 278 278 280 280 280 280 280 281 281 281 282 282 282 282 282 282 282 282 282 282 281 281 281 282 282 282 282 282 283 284 284 285 286 287 287 287 287 288 288 288 288 289 290
285 285 285 285 285 285 284 285 285 284 284 283 282 283 283 282 281 281 281 280 280 279 279 278 278 278 277 278 277 277 277 277 278 280 280 279 280 280 280 281 282 281 281 281 282 282 282 281 281 280 280 281 280 280 280 281 281 281 282 283 284 284 285 286 286 286 286 287 287 287 288 288 288 288
284 285 285 285 284 284 284 284 285 286 285 285 284 283 282 282 281 281 280 279 279 279 278 278 277 277 277 277 277 277 278 280 281 280 279 278 279 279 279 280 280 282 281 280 279 280 281 279 279 279 279 280 280 281 281 281 281 281 282 283 284 284 285 285 286 286 286 286 286 287 287 287 287 288
284 284 285 285 284 284 283 284 284 286 285 285 285 284 284 283 282 280 279 278 279 278 278 278 278 277 277 278 278 278 279 279 279 278 279 278 278 278 278 277 279 281 280 279 278 278 280 279 277 278 279 279 280 280 280 281 282 282 283 283 284 284 285 285 285 285 285 286 286 286 286 287 287 287
284 284 284 284 284 284 284 283 283 284 285 285 285 284 283 283 284 284 281 279 278 278 278 278 278 278 277 278 278 278 279 278 279 279 278 278 278 277 276 277 277 280 280 278 277 276 279 279 277 277 278 279 280 280 281 282 282 282 283 283 283 284 284 284 285 285 285 285 286 286 286 286 286 286
283 283 283 282 282 283 283 283 282 282 283 284 284 284 283 283 283 284 283 283 281 280 279 278 278 278 279 277 278 279 279 280 278 278 277 278 278 278 277 277 278 278 280 277 275 274 277 277 276 276 278 279 280 280 281 281 282 282 282 283 283 283 284 284 284 284 285 285 285 285 285 286 285 285
284 283 282 282 281 282 282 283 282 282 282 282 282 282 281 280 281 283 283 282 280 280 280 280 278 279 279 278 279 280 281 279 277 277 277 278 277 277 276 278 279 279 279 276 275 273 275 277 276 276 278 279 279 279 280 281 281 282 282 282 282 283 283 283 284 284 284 284 284 284 285 285 285 285
283 283 283 282 281 281 281 282 282 281 281 281 280 280 279 279 279 280 281 280 280 279 278 279 279 279 279 280 280 280 281 280 279 280 278 278 278 278 278 277 277 277 278 276 274 270 275 277 275 276 277 278 278 279 279 281 281 282 282 282 282 282 283 283 283 283 283 283 283 284 284 284 284 284
283 283 283 282 281 281 281 282 283 282 281 280 279 278 278 278 279 279 281 282 281 279 279 279 280 280 280 281 281 281 280 279 279 279 277 276 275 274 273 272 274 274 276 276 274 272 272 276 274 275 277 277 276 277 278 280 281 281 281 281 281 282 282 282 282 282 282 282 283 283 283 283 284 284
283 283 282 282 281 281 281 282 284 284 282 279 278 278 277 277 277 278 279 282 282 281 281 281 281 282 282 282 283 282 282 280 279 276 275 273 274 273 271 271 272 272 275 275 274 272 271 274 274 274 275 276 275 276 277 278 279 280 280 280 281 281 281 281 281 281 281 282 282 283 283 283 283 282
283 283 282 282 281 280 280 282 284 284 282 279 278 278 277 276 276 277 279 279 280 281 281 281 281 282 282 282 282 282 282 281 279 275 273 274 273 271 272 270 272 273 274 273 275 271 271 274 274 273 274 274 274 275 276 277 278 278 279 280 280 280 280 280 280 280 281 281 282 282 282 282 282 280
283 282 282 282 281 280 280 283 284 284 282 279 279 278 277 276 275 276 278 278 277 277 278 278 279 280 281 281 280 280 281 281 279 277 275 274 272 271 271 270 270 269 271 273 275 270 271 273 273 273 270 269 273 276 276 277 277 277 276 276 276 278 278 279 279 280 280 280 281 281 281 281 281 279
281 281 281 281 283 282 282 283 284 284 284 280 279 279 277 276 275 278 278 278 278 278 278 278 279 279 280 280 279 279 279 279 277 276 275 274 273 271 270 270 270 269 272 273 275 271 272 272 271 274 270 268 267 273 275 275 275 275 275 275 275 277 278 278 278 279 279 280 280 280 280 280 280 278
280 280 280 280 282 283 283 283 283 284 284 282 279 279 278 277 278 280 277 278 279 278 278 278 278 278 277 276 276 276 275 273 273 274 274 273 273 271 269 269 269 269 272 274 274 271 269 271 269 271 269 269 269 269 272 273 274 274 274 275 274 275 276 276 277 276 278 278 279 279 279 279 279 278
280 279 279 278 280 282 283 282 283 284 284 284 280 279 281 281 281 278 277 278 278 278 278 277 276 275 275 274 273 273 273 272 272 272 273 273 272 272 272 271 269 268 269 273 274 272 270 269 269 268 269 268 268 270 269 270 272 273 274 275 274 275 275 275 275 276 276 276 276 277 277 279 279 280
279 279 278 278 280 282 282 282 283 284 284 284 281 281 282 281 281 279 277 277 277 276 276 275 274 274 272 272 271 271 271 271 271 272 272 272 272 272 272 272 272 271 272 273 273 272 270 268 270 268 267 268 267 268 268 268 270 274 273 273 274 275 275 275 274 275 275 275 275 277 278 278 278 279
279 278 278 278 280 281 282 282 283 283 283 282 284 282 282 282 281 277 276 276 276 275 274 273 272 272 272 271 271 270 271 271 271 271 271 271 271 271 271 272 272 272 272 272 272 272 271 269 269 269 268 267 266 266 266 270 270 271 270 273 274 274 275 275 274 274 275 275 275 275 275 274 275 275
280 279 279 279 280 281 282 282 283 283 283 284 284 282 282 281 279 276 275 275 275 273 272 272 272 271 271 272 272 272 271 271 271 271 270 271 271 271 270 270 270 270 270 270 270 270 270 269 268 269 268 268 267 267 268 267 269 269 271 270 269 273 273 274 274 274 274 274 274 274 274 274 274 275
282 280 280 280 280 280 281 281 280 280 281 283 283 282 281 279 278 276 275 275 273 272 272 272 271 271 270 270 271 271 271 270 269 269 268 268 267 267 266 266 266 267 268 269 269 270 270 270 270 269 268 268 268 267 268 268 267 269 270 270 270 272 273 273 273 273 273 273 273 273 274 274 274 274
281 280 279 279 280 279 280 281 281 281 281 281 282 280 279 279 278 275 275 274 273 272 272 272 271 270 270 270 269 269 269 268 269 269 267 266 265 266 265 265 265 266 267 268 269 269 270 270 270 270 268 268 268 268 268 269 267 268 269 270 270 267 270 272 272 272 273 273 273 273 274 274 274 276
281 279 279 279 278 278 278 279 279 279 279 280 280 278 278 278 276 275 276 275 273 273 272 271 269 268 268 267 268 268 267 267 267 267 266 265 265 265 265 264 264 266 266 267 267 269 269 270 270 270 270 269 267 268 269 268 267 268 268 269 270 270 271 271 271 272 273 273 272 271 272 273 273 274
279 278 277 276 276 276 276 276 277 278 278 278 277 277 277 276 274 274 273 272 271 271 270 268 267 266 266 265 266 265 265 265 265 266 265 265 265 265 265 264 265 265 265 266 267 267 268 269 269 270 270 270 270 269 267 266 267 268 268 268 269 269 270 271 271 271 272 271 270 271 271 272 273 273
277 276 275 275 275 275 275 275 276 277 277 277 276 276 277 274 273 273 272 272 271 270 269 268 266 265 265 264 264 264 264 264 264 265 265 264 265 264 264 263 264 265 265 266 266 267 268 268 269 269 269 269 270 269 268 266 266 267 268 269 269 268 270 271 271 272 271 271 270 269 269 270 272 273
276 275 274 274 275 275 275 276 276 276 277 274 274 274 273 273 272 272 271 271 269 268 268 267 265 265 265 264 264 263 263 263 263 264 265 264 265 264 264 264 264 265 265 265 266 267 268 268 268 267 267 268 267 268 272 269 267 267 268 268 269 269 269 270 270 271 271 270 270 268 268 269 270 272
275 275 274 274 274 275 275 275 276 276 276 273 272 272 271 271 271 271 270 269 268 267 267 265 265 265 264 264 263 263 263 263 263 263 263 263 264 264 264 264 264 265 265 265 266 267 267 267 267 266 264 264 264 264 266 272 272 268 267 267 268 268 269 269 270 270 269 268 269 268 266 267 268 271
275 274 274 274 274 274 274 275 276 275 274 273 271 271 270 270 270 271 270 269 267 267 266 264 264 264 264 264 263 263 263 263 262 263 263 264 264 264 263 263 264 264 264 265 266 267 267 266 267 266 264 263 263 262 264 268 270 273 270 267 267 268 268 268 268 267 268 269 268 268 268 268 268 270
276 275 274 274 274 274 275 275 275 274 273 272 270 269 270 269 270 269 268 267 266 265 265 264 263 263 263 263 262 262 262 263 263 263 263 264 263 263 263 263 264 264 264 265 266 266 267 267 266 266 265 263 262 262 262 266 267 268 272 270 267 267 268 267 266 266 266 268 268 269 270 268 269 270
276 275 274 274 274 274 274 274 274 273 271 270 269 269 269 268 266 265 265 265 265 264 264 263 263 263 262 262 263 262 262 262 262 262 263 263 263 263 263 263 263 264 264 264 266 266 267 266 266 265 265 264 262 263 264 263 263 267 269 271 269 267 267 267 266 266 266 266 268 270 270 271 272 274
277 275 275 275 275 274 274 274 273 272 271 270 270 270 268 264 264 264 264 264 263 264 263 262 263 262 262 262 262 262 262 262 262 262 262 262 263 263 263 263 263 264 264 264 264 265 266 266 266 266 266 266 266 266 266 266 266 266 267 268 272 270 267 267 266 266 266 267 268 267 266 268 267 269
278 276 275 276 275 274 273 272 272 271 270 270 269 269 266 265 264 263 263 264 263 262 262 262 262 262 261 261 262 262 261 262 262 262 262 262 262 263 263 263 263 264 263 263 264 265 265 266 267 269 268 267 267 267 265 263 262 264 265 267 270 271 272 272 269 268 266 268 267 266 265 265 266 266
278 276 276 275 274 273 273 272 271 270 269 269 269 267 266 265 265 266 265 264 263 262 261 261 261 261 261 261 261 262 261 261 261 262 262 262 262 263 263 263 262 264 264 263 264 265 267 268 268 267 266 266 265 263 261 262 262 263 264 266 267 270 271 272 272 272 270 268 267 265 265 266 267 265
276 276 276 274 273 272 272 271 270 269 268 269 267 266 265 265 264 264 262 261 261 261 261 261 261 261 261 261 261 261 261 262 262 262 262 262 262 262 262 263 263 264 264 264 265 266 266 267 267 266 266 265 264 264 262 262 263 263 263 264 265 266 267 270 271 272 272 273 273 270 268 267 265 262
275 275 274 273 271 270 269 269 269 268 268 268 265 265 264 263 263 262 261 261 261 261 261 261 261 261 260 260 260 261 261 262 262 262 262 262 262 263 263 263 264 264 264 264 264 265 266 266 266 266 264 264 264 263 262 262 262 263 263 264 264 264 264 266 267 269 270 271 272 272 273 273 273 272
274 273 271 270 269 268 268 268 267 266 266 265 264 264 264 264 262 261 261 261 261 261 260 260 260 260 260 259 260 260 261 262 262 262 262 262 263 263 263 264 264 264 263 264 264 264 265 265 265 265 264 264 264 264 263 263 263 263 263 263 262 263 264 264 264 264 264 265 269 271 272 272 273 273
Wind_Speed
11 10 11 10 8 8 7 6 6 6 6 6 5 8 9 9 7 6 8 9 8 8 9 7 8 8 7 6 6 6 6 6 7 4 3 3 3 2 4 5 6 6 5 5 4 5 5 5 6 7 8 9 10 11 10 11 12 12 12 12 12 12 12 12 12 13 13 14 14 15 15 15 15 16
10 10 9 10 9 7 7 8 7 6 7 6 6 7 8 8 10 8 8 8 9 7 9 8 7 9 9 7 6 6 6 8 6 4 4 4 4 3 6 7 7 6 5 5 5 5 5 5 6 7 8 9 10 10 10 11 11 12 12 12 12 12 12 13 13 13 13 14 15 15 16 16 16 16
10 12 12 10 10 8 8 7 7 7 6 7 6 6 5 5 8 9 7 5 5 7 9 9 6 9 10 7 6 5 5 7 6 5 5 5 4 4 6 8 8 8 6 6 6 6 6 6 6 7 8 10 10 10 10 11 11 12 12 12 12 12 12 13 13 14 14 15 16 16 17 17 18 18
11 12 13 12 11 8 8 8 8 8 7 7 7 6 6 6 5 5 6 8 6 5 6 8 7 9 9 9 8 7 6 5 8 6 5 5 5 6 5 8 9 8 8 7 7 7 6 7 6 7 8 9 10 11 11 11 11 12 12 12 12 13 13 13 14 15 16 16 16 17 17 17 17 17
12 14 14 13 13 10 11 9 8 8 8 7 7 6 6 7 6 7 8 8 6 4 3 6 7 8 9 8 9 9 8 7 7 7 6 6 6 5 5 5 8 10 9 8 8 8 8 7 6 7 8 9 10 10 11 11 12 12 12 13 13 13 14 15 16 16 16 16 16 16 16 16 17 17
11 12 13 13 12 11 12 10 11 10 10 10 9 8 8 8 8 8 8 9 6 7 6 5 6 8 9 8 9 9 8 7 6 6 6 5 6 5 5 5 5 10 10 9 9 8 7 6 6 7 7 8 9 10 11 12 12 13 13 13 13 14 15 16 16 16 16 16 16 16 16 16 16 17
13 13 14 14 11 8 11 11 10 10 11 10 11 11 9 9 9 9 9 8 7 8 7 7 7 8 8 8 8 8 6 5 5 6 7 6 5 5 6 5 4 8 10 10 9 8 7 6 6 7 8 8 9 11 11 12 13 13 13 13 14 14 14 15 15 15 15 15 15 15 16 16 17 17
13 15 15 14 13 11 12 11 11 10 10 10 10 9 8 8 9 8 8 8 6 7 8 8 8 7 8 7 5 5 4 5 5 6 6 6 6 6 6 6 6 6 10 9 8 8 7 7 7 8 8 9 10 11 12 13 13 13 13 13 13 14 14 15 15 14 14 14 15 15 16 17 17 17
12 13 14 14 11 11 12 12 12 10 13 9 8 8 8 8 7 6 7 8 5 7 9 8 7 7 7 7 7 8 7 7 7 7 7 7 7 7 7 6 6 8 10 10 9 8 7 7 8 8 9 9 10 12 13 13 12 12 13 13 13 14 15 14 14 14 14 15 16 16 17 17 17 17
11 12 13 10 11 13 15 14 13 10 12 8 8 10 9 9 8 9 8 7 7 6 8 9 9 8 9 8 8 10 9 9 8 8 7 7 7 7 7 7 6 6 5 5 6 7 8 9 8 8 9 10 12 12 13 13 12 12 13 13 14 15 15 14 14 14 15 16 16 17 18 18 18 18
12 13 11 10 12 15 15 13 13 11 11 10 12 10 10 9 9 10 9 9 9 8 8 8 8 9 8 9 9 9 9 8 7 8 8 8 8 8 7 6 6 5 5 6 7 5 4 5 6 8 10 11 11 11 11 12 12 12 13 15 16 15 15 15 15 15 16 16 17 18 19 19 19 19
14 15 14 14 15 16 16 13 8 9 11 10 10 9 8 9 9 9 9 9 9 8 8 8 10 9 10 8 6 8 9 7 7 8 8 8 9 9 8 7 5 5 4 3 3 5 5 6 7 8 9 8 7 8 9 10 11 13 15 16 16 16 16 16 16 16 17 17 19 20 20 20 20 20
16 16 16 16 15 19 22 23 21 18 17 11 11 10 10 9 7 7 7 8 8 8 8 7 8 8 9 9 10 10 10 11 10 10 9 6 4 5 5 6 6 5 4 3 3 3 3 3 4 4 4 3 4 5 7 8 11 13 14 15 16 17 17 17 17 17 17 18 19 20 20 21 21 21
16 17 16 15 23 23 24 24 24 25 22 23 15 12 11 12 8 8 8 8 9 8 8 9 10 9 10 11 11 10 10 8 6 8 9 7 6 5 5 4 4 5 4 4 3 2 2 2 5 4 5 4 3 4 4 4 6 10 15 17 18 18 18 17 17 17 18 19 20 20 20 21 21 21
15 15 16 14 18 21 21 22 23 14 16 14 14 10 7 12 21 17 11 8 9 9 8 8 8 9 9 10 10 10 9 9 9 8 7 6 5 5 4 3 3 4 4 2 1 2 1 2 5 5 4 4 4 5 6 9 12 15 17 19 19 19 18 18 18 18 19 19 19 20 20 21 21 21
12 13 13 12 10 13 16 13 13 17 16 17 18 14 10 13 16 20 21 15 9 8 7 8 8 8 10 10 10 9 10 10 9 8 8 7 7 5 4 2 2 3 4 2 1 5 4 3 5 7 5 4 5 6 10 13 14 16 18 20 20 19 18 19 19 19 19 19 19 20 20 21 21 21
13 11 9 9 9 10 22 16 13 13 13 17 18 17 14 15 18 19 17 11 4 9 12 12 11 11 9 10 10 10 10 10 10 9 7 8 7 5 4 4 3 4 5 2 1 4 5 3 4 6 6 5 5 7 11 14 15 18 20 20 19 19 19 19 19 19 19 19 20 20 21 21 20 21
14 13 10 9 9 8 11 13 15 14 13 12 13 12 11 11 14 18 18 20 10 5 6 11 15 8 8 7 9 11 11 12 10 9 7 7 6 5 4 3 2 2 2 2 1 4 5 4 5 7 6 5 6 8 10 13 15 17 19 19 19 20 20 19 18 19 20 21 20 20 20 20 21 22
13 12 10 11 10 10 12 13 16 15 13 14 12 12 12 10 12 14 15 14 12 9 8 7 4 7 8 8 10 11 10 9 8 7 6 5 4 3 1 2 3 4 3 3 3 4 3 4 5 7 6 5 7 7 10 15 17 18 19 19 20 20 20 18 19 21 21 21 20 20 19 20 21 22
11 12 10 10 10 10 11 15 22 17 11 15 16 18 16 10 10 12 14 16 13 11 10 8 8 8 8 10 10 11 10 9 9 8 7 7 5 4 3 5 4 5 5 7 7 5 5 6 7 7 5 5 7 8 9 14 17 17 18 19 20 19 19 20 21 21 21 20 19 19 19 20 22 23
12 11 12 12 11 11 12 17 24 22 16 15 17 17 16 8 9 10 11 17 18 16 13 12 13 13 15 14 15 16 17 12 10 9 8 7 6 7 6 6 5 6 5 6 7 5 6 7 7 6 6 6 8 8 9 9 12 17 18 19 19 20 21 21 21 20 20 20 19 19 19 20 20 24
10 13 21 17 12 12 13 19 25 26 20 18 18 17 17 12 12 10 10 10 11 18 16 15 15 15 15 16 16 16 16 17 13 10 10 10 8 8 8 6 5 3 3 6 7 5 6 4 4 5 5 6 7 9 9 8 8 12 14 18 21 23 22 21 21 20 20 20 19 18 19 18 19 14
9 9 13 19 16 12 13 22 25 28 22 17 17 13 13 12 14 13 13 13 13 12 11 11 12 12 14 13 12 12 19 19 16 9 9 9 8 8 7 5 3 3 5 6 9 5 5 4 5 3 2 3 4 5 6 7 6 6 8 10 12 18 20 20 20 20 21 20 19 18 18 17 15 11
8 7 8 15 22 20 20 23 27 27 28 14 12 12 13 14 15 12 12 12 10 12 12 12 13 13 14 12 11 11 13 13 13 11 9 8 7 6 6 5 6 3 1 5 7 4 2 3 4 2 2 2 3 2 5 6 7 8 9 10 10 12 15 17 16 20 20 18 19 19 18 16 14 9
8 8 9 9 18 24 23 25 28 29 29 24 14 15 13 13 12 16 14 17 20 13 12 12 13 12 8 7 7 8 9 8 9 9 9 8 7 6 6 6 6 6 3 5 6 3 3 3 4 3 4 4 5 4 6 9 10 10 10 10 10 9 8 9 9 10 13 17 18 17 16 15 14 11
7 9 8 7 15 24 25 25 27 29 29 32 15 15 18 15 23 18 12 12 11 10 13 13 10 9 9 9 8 8 7 8 8 8 8 8 7 6 7 7 6 5 5 4 5 4 4 5 5 4 4 4 6 6 8 8 9 10 9 9 10 10 9 10 9 10 9 9 9 9 10 15 17 19
7 6 7 8 19 25 26 26 28 29 32 30 20 23 23 21 26 16 9 13 12 13 12 13 13 13 9 9 8 7 7 7 7 7 7 6 7 6 7 7 6 6 4 2 4 6 5 5 4 5 5 5 7 7 8 8 6 5 8 9 9 9 9 9 10 9 8 8 9 14 15 15 16 18
8 7 8 8 19 24 26 26 27 28 29 23 31 27 28 26 25 11 11 10 14 15 13 14 12 13 12 8 8 7 7 8 8 8 7 7 7 6 6 7 7 6 5 5 5 6 6 7 7 7 7 7 8 7 7 6 7 8 9 10 9 10 8 8 9 10 9 8 8 7 8 9 9 10
9 10 14 17 21 23 25 27 27 27 30 33 30 30 31 27 17 11 12 12 11 12 12 12 12 10 9 9 9 9 9 9 9 8 7 6 6 4 2 1 1 3 3 4 6 7 8 8 7 7 7 8 9 10 9 10 7 9 9 10 8 5 7 11 9 7 7 8 8 9 9 9 10 10
16 17 19 22 23 24 23 21 17 16 17 27 30 29 30 19 18 14 13 12 14 12 9 10 10 8 8 8 9 10 10 9 8 8 8 7 5 3 2 2 4 4 5 6 7 8 9 9 9 8 8 8 9 10 10 10 10 8 9 10 12 11 7 6 10 9 9 9 8 8 9 10 11 11
12 15 17 14 18 16 25 26 23 23 20 19 20 17 19 17 15 13 11 10 11 13 13 12 7 7 8 8 9 9 9 8 8 8 7 6 5 5 4 4 5 4 6 7 8 9 9 9 9 9 8 8 8 9 10 10 12 11 9 9 9 10 8 10 10 10 11 12 11 9 9 10 11 11
11 9 13 17 13 14 14 17 14 13 12 14 14 15 15 12 11 12 13 9 8 10 10 7 7 8 8 8 8 7 7 8 7 8 7 6 6 6 5 5 6 5 5 7 8 9 9 9 9 8 9 8 9 9 8 9 11 11 11 9 10 11 10 10 11 10 10 12 14 12 10 10 11 11
8 9 10 11 12 12 14 14 15 15 14 10 13 15 15 13 10 11 9 10 8 10 10 12 11 9 8 7 7 7 8 7 7 7 7 6 6 6 6 6 5 6 6 7 7 8 8 8 8 9 8 8 10 9 9 10 10 9 10 10 8 10 10 9 10 11 11 12 12 14 14 11 11 12
10 10 11 13 13 13 13 14 15 14 14 12 14 13 12 12 10 14 12 10 11 10 11 11 10 8 8 8 8 8 8 7 7 7 8 7 7 6 7 6 6 6 6 5 5 6 6 7 7 8 9 11 11 12 11 11 11 8 9 9 9 10 11 9 10 11 10 10 13 15 15 15 13 12
12 12 11 12 13 13 13 13 14 12 12 10 10 11 11 13 13 14 12 11 9 10 10 10 7 8 8 9 8 8 8 9 8 7 7 6 7 7 6 6 6 6 6 6 5 5 5 5 5 5 6 7 8 9 15 15 10 11 8 9 8 9 11 10 10 11 11 11 10 13 15 16 17 14
10 13 12 11 12 13 13 13 12 13 13 11 11 11 12 13 12 13 13 11 12 12 13 11 9 9 8 8 8 8 9 9 8 8 8 8 7 7 6 6 6 6 6 5 5 5 4 5 4 5 5 6 6 7 4 17 20 10 8 8 7 9 10 11 11 12 12 11 11 12 13 15 16 17
13 12 11 12 11 13 11 9 11 11 11 12 11 11 13 14 12 13 11 12 11 11 13 9 9 8 8 8 8 7 8 8 8 8 8 7 7 6 6 6 6 6 6 6 5 5 4 5 5 5 5 6 6 8 8 1 10 14 11 11 10 9 10 10 12 13 13 12 12 12 14 15 17 17
12 12 12 10 13 12 12 12 11 10 10 10 10 9 10 8 11 11 12 11 10 8 10 8 7 8 8 8 9 8 7 7 7 8 7 7 7 7 7 6 6 6 6 5 5 5 5 5 5 5 5 6 7 8 9 5 3 6 11 10 10 11 9 11 12 13 14 12 11 13 14 16 17 17
12 12 12 11 12 11 11 11 11 11 10 10 10 11 9 10 9 9 11 11 9 8 8 7 7 7 7 7 6 7 8 8 7 7 7 7 7 6 6 6 5 5 6 6 6 6 6 6 6 5 5 6 8 8 8 11 11 6 8 14 12 12 13 11 13 13 13 14 13 13 13 15 20 31
11 8 10 10 11 11 10 10 10 10 10 11 11 11 11 9 10 11 10 9 8 10 8 7 9 9 7 7 7 6 5 6 6 6 6 6 6 6 5 5 6 6 6 6 6 6 7 7 6 5 6 7 8 9 10 12 14 12 11 14 23 19 14 13 14 14 15 13 13 15 16 18 16 15
10 9 11 12 10 10 10 10 9 10 10 11 10 8 9 9 9 8 9 12 11 9 8 8 9 9 8 7 7 7 7 5 5 5 5 5 5 6 7 7 6 6 6 6 6 7 7 6 5 8 8 8 9 10 10 11 12 11 8 7 9 15 19 17 15 16 17 17 16 18 17 16 17 17
9 8 8 10 11 10 11 10 10 9 9 11 10 10 11 10 9 15 13 13 11 9 7 8 7 8 8 7 7 6 6 6 5 5 5 5 5 6 7 6 6 6 6 6 6 6 6 5 4 6 8 7 7 7 10 10 12 13 12 10 9 12 17 20 21 21 18 17 18 18 17 18 14 16
7 7 10 8 8 9 10 10 10 9 9 10 10 11 12 11 10 11 7 9 8 8 8 7 7 7 7 7 6 6 6 6 5 5 5 6 5 5 5 6 5 5 5 5 5 5 6 7 6 6 6 6 7 7 10 11 11 13 14 13 13 11 11 16 20 24 26 29 28 24 21 18 16 18
6 7 8 8 8 9 9 10 10 8 10 11 11 11 12 10 11 9 8 8 8 8 8 8 7 7 7 6 6 6 5 5 5 5 5 5 5 5 5 5 5 5 5 5 5 6 6 6 6 6 6 7 7 8 11 12 13 12 12 14 13 13 16 13 13 15 19 23 25 26 31 34 31 33
6 7 8 9 9 9 10 9 10 10 10 10 8 10 10 10 12 9 7 8 8 8 7 7 7 6 7 7 7 6 5 6 5 4 4 4 5 5 5 5 5 5 5 5 5 5 5 6 6 6 7 8 8 9 10 11 13 14 15 14 14 15 14 14 16 17 14 12 14 22 24 27 30 32
Wind_Direction
204 207 201 209 210 204 192 202 209 202 201 204 193 189 192 197 206 181 209 204 198 186 194 184 193 192 192 181 173 165 193 160 166 201 207 232 257 241 287 290 285 290 294 303 296 291 294 296 299 302 308 312 309 310 316 325 326 327 327 325 323 322 321 321 324 325 326 324 323 323 324 324 324 324
201 205 202 208 216 195 187 202 201 198 202 199 196 200 204 206 212 204 198 207 188 173 187 197 173 184 188 182 177 177 196 139 176 203 226 229 238 235 274 275 272 274 281 279 278 276 283 279 283 292 300 303 306 313 317 320 322 323 323 322 319 318 319 321 322 323 322 322 322 323 323 322 322 319
200 203 204 204 214 195 194 195 196 199 196 199 196 206 204 207 215 220 214 220 174 171 178 194 179 172 180 178 172 175 192 160 191 211 226 229 209 248 257 255 257 261 259 259 259 260 263 268 274 289 300 304 309 311 315 317 319 318 317 315 314 316 318 319 320 321 324 323 323 322 320 317 315 313
204 205 208 206 207 193 187 197 195 196 196 194 197 198 197 204 208 210 214 226 180 177 176 170 162 164 171 174 178 183 194 155 180 223 224 222 208 235 232 229 244 252 250 251 251 254 257 264 277 291 296 302 309 312 311 314 316 315 311 307 310 314 317 322 325 326 324 321 317 312 309 308 307 307
203 208 208 208 206 187 191 198 192 194 190 187 197 192 193 200 193 191 208 210 177 142 142 153 158 160 163 178 188 189 191 190 196 207 228 224 226 227 236 228 223 236 244 247 249 250 252 259 277 287 295 303 305 307 310 311 310 307 306 309 313 319 325 326 326 321 315 312 309 307 306 306 306 307
199 204 205 207 198 191 197 195 195 191 186 189 190 194 192 198 191 194 198 211 187 167 159 166 148 156 175 182 186 196 195 197 195 204 216 223 225 227 227 234 221 219 234 242 246 250 251 262 274 287 292 295 300 303 304 303 303 303 308 313 320 324 325 321 315 310 307 304 303 304 305 305 306 306
196 200 207 207 191 178 196 203 200 189 190 186 193 193 191 197 193 188 201 198 198 166 177 173 164 170 178 192 183 192 204 202 205 217 221 223 222 223 231 233 235 217 230 238 244 247 254 262 271 276 284 292 295 295 297 299 301 307 312 317 319 318 315 309 304 302 302 301 301 303 304 304 305 307
193 199 203 207 191 179 194 201 198 196 190 187 192 187 185 192 189 183 188 207 199 166 157 183 180 174 169 190 184 176 183 200 217 224 234 227 230 230 226 233 237 224 229 242 249 251 254 258 262 267 276 283 287 292 297 301 306 311 314 313 313 310 304 300 297 298 300 301 303 305 306 307 309 310
197 201 204 200 173 175 193 198 194 188 189 188 179 180 175 182 181 164 186 192 193 172 173 161 176 169 175 179 180 178 180 195 212 221 226 228 229 233 231 229 231 230 233 241 243 241 242 246 250 256 266 277 288 295 299 303 309 310 310 310 305 300 296 295 296 300 302 304 306 306 307 308 308 309
197 203 207 195 179 187 197 201 193 178 183 172 181 180 176 177 166 172 178 183 184 181 174 161 161 179 174 173 187 187 189 189 191 202 214 224 232 231 231 225 215 209 206 202 203 208 220 219 230 252 271 286 295 298 300 304 309 311 307 301 296 293 293 294 298 302 304 306 307 306 307 307 308 309
209 213 211 200 194 200 203 198 187 176 172 181 189 182 175 164 164 175 178 177 178 181 173 168 172 170 184 182 182 184 188 198 198 193 191 208 212 218 223 220 200 202 209 213 217 231 255 269 271 276 285 291 293 297 302 308 310 307 299 292 291 291 293 296 299 302 305 306 306 307 307 307 308 309
217 216 216 214 211 211 209 201 176 158 179 173 180 184 167 166 168 177 174 171 175 177 181 175 172 177 175 183 183 159 174 188 208 209 204 203 189 196 205 215 205 199 205 213 191 197 217 227 244 269 280 275 280 294 304 306 303 295 290 287 287 291 295 299 302 305 308 308 310 309 309 308 309 310
219 218 217 216 215 215 219 216 213 206 197 171 180 181 163 172 168 169 170 174 172 177 176 177 174 172 180 184 176 178 186 193 197 185 193 217 198 191 206 201 196 202 206 205 202 199 191 247 267 276 279 273 299 299 299 294 284 278 279 284 289 293 297 300 302 304 306 306 303 302 302 303 304 305
222 220 218 217 220 221 221 220 219 217 213 209 200 161 166 176 165 169 168 173 179 173 179 184 171 178 192 186 187 186 192 184 165 165 186 204 198 189 215 210 199 188 188 204 206 194 183 275 286 283 289 298 301 300 298 283 286 284 285 286 288 291 295 296 299 301 302 300 298 298 300 302 302 304
223 222 221 221 218 220 221 221 219 211 206 206 216 214 200 177 162 170 170 182 166 179 190 173 177 188 184 185 180 183 172 169 173 177 184 194 194 199 194 188 135 171 171 194 246 255 211 308 299 296 290 295 293 285 274 278 284 286 287 287 289 291 291 294 297 298 296 294 295 296 298 299 300 303
224 221 219 216 210 205 210 201 202 210 206 204 207 207 209 210 208 195 173 163 178 195 177 175 192 172 188 175 172 176 169 171 172 179 183 193 197 188 197 196 175 109 130 156 289 290 312 314 294 292 285 285 282 272 272 276 282 286 284 284 285 287 290 292 291 289 288 290 291 293 295 296 298 301
222 213 204 210 207 204 209 206 202 199 199 201 200 200 200 208 209 214 228 271 296 167 166 176 173 187 172 165 183 176 172 163 163 170 182 192 194 196 199 197 165 149 141 135 272 288 296 293 269 271 275 265 262 264 261 264 271 273 273 275 279 282 283 281 283 285 286 289 291 293 295 296 299 301
222 212 199 202 201 186 185 196 198 190 189 185 187 193 195 197 206 215 217 215 227 238 213 170 176 172 165 172 168 171 165 166 166 171 179 184 185 192 201 199 175 149 118 167 275 282 268 257 252 253 254 251 258 258 260 262 262 264 266 269 273 275 273 275 279 284 287 288 290 292 295 299 302 301
220 215 207 205 201 190 182 193 190 186 175 181 185 191 197 193 196 200 202 203 203 194 202 210 177 155 164 163 160 159 165 160 153 155 157 166 180 179 187 261 264 267 246 220 211 240 273 242 236 247 255 261 260 259 264 262 260 259 260 263 267 268 269 273 281 284 287 289 291 292 295 297 298 298
217 218 202 204 199 188 188 191 188 181 166 186 193 198 199 191 192 199 201 197 191 184 188 180 166 155 157 157 156 158 156 149 143 120 94 74 84 106 186 225 240 234 235 200 208 224 243 251 253 257 258 261 265 264 260 261 259 257 256 256 259 263 268 277 280 280 283 289 291 290 291 295 297 297
216 211 203 206 205 190 195 185 186 184 167 187 195 198 197 187 188 193 191 190 187 183 175 161 154 150 155 156 155 159 158 156 141 119 127 156 164 185 212 235 228 237 208 196 202 221 248 242 237 253 259 267 270 267 260 260 256 250 249 251 256 263 270 275 276 278 282 285 288 288 288 290 293 296
220 216 217 213 206 195 195 183 191 193 185 196 198 198 196 186 192 190 178 169 177 174 170 166 165 167 166 165 164 167 167 162 145 153 161 168 161 196 215 217 213 222 201 200 195 196 233 241 241 255 271 271 256 255 258 251 241 242 246 252 260 264 266 267 270 274 278 280 282 284 286 287 291 295
221 217 212 204 204 192 187 186 195 198 192 197 198 191 187 189 194 189 172 168 164 166 164 172 169 172 175 175 176 182 183 176 162 152 133 148 161 189 206 206 202 253 242 199 178 187 241 218 250 239 285 268 261 225 236 230 222 242 258 262 260 257 260 262 267 274 275 276 280 283 285 284 291 294
207 206 199 200 204 200 192 194 199 200 198 189 183 183 193 189 196 174 166 168 164 169 170 170 172 172 179 181 179 180 183 166 158 157 140 147 158 178 196 203 200 204 116 147 171 195 259 239 250 199 221 273 284 207 212 233 255 263 260 260 257 259 263 265 267 266 266 268 273 279 284 285 288 289
208 203 204 197 199 204 202 201 202 203 203 197 186 193 194 193 162 158 172 179 172 169 165 168 170 170 150 141 142 148 157 145 150 138 144 155 168 178 193 200 204 218 215 157 151 197 226 233 248 244 247 226 249 264 244 251 259 259 259 257 264 268 265 264 266 268 266 266 268 275 278 281 283 279
206 205 194 188 189 199 204 205 203 205 206 207 200 203 198 173 166 174 174 168 166 164 171 170 160 151 153 153 155 159 158 152 142 142 144 157 173 188 200 200 196 201 218 214 202 218 230 249 242 250 250 247 259 250 264 251 253 253 251 254 258 259 258 263 261 259 265 268 270 270 282 287 284 279
203 186 181 181 183 196 203 203 204 205 211 212 207 200 192 183 173 156 151 168 170 170 169 168 168 169 159 159 159 155 157 151 142 142 145 157 171 190 201 208 215 219 229 215 195 219 228 248 252 239 250 257 270 269 256 261 255 246 268 264 256 256 257 259 262 264 262 269 272 284 290 287 283 280
205 189 187 175 188 200 202 203 204 208 209 210 210 201 194 186 177 156 167 168 176 174 166 170 166 171 174 155 158 161 157 150 146 143 148 160 179 189 200 206 214 224 235 234 230 229 231 239 247 242 242 249 256 261 269 260 265 268 272 275 269 263 253 251 270 275 274 272 278 282 286 290 286 283
218 184 175 185 195 200 204 203 207 213 214 213 209 201 196 190 186 174 172 175 168 172 173 171 171 166 166 166 157 150 140 138 136 139 145 155 170 170 167 212 246 239 230 245 246 245 241 236 240 242 243 245 248 259 263 270 275 277 276 289 280 247 278 281 271 270 281 286 287 289 288 289 287 280
211 187 188 194 196 202 205 211 210 210 212 215 211 201 193 190 193 181 175 173 179 175 159 156 163 155 146 147 145 139 140 141 151 144 145 147 152 139 157 219 250 239 238 242 242 241 239 237 237 237 243 248 250 260 266 279 280 271 276 272 280 290 249 265 294 296 292 289 286 284 283 277 274 273
205 193 187 189 192 196 209 213 211 209 205 209 211 196 191 193 188 180 169 170 167 173 173 175 152 126 133 126 129 148 147 144 147 144 143 145 160 162 179 200 231 227 221 224 235 236 237 238 238 238 241 251 256 257 268 272 277 280 276 278 288 287 292 299 292 297 304 302 297 286 280 276 276 272
206 185 188 190 194 198 202 208 209 208 208 207 190 183 188 187 179 166 152 138 161 169 167 133 108 117 132 138 142 134 135 136 134 137 139 151 157 163 170 192 222 215 213 207 224 235 242 246 246 245 245 248 254 260 262 265 269 276 280 276 274 277 283 293 297 298 302 303 300 296 287 282 281 279
188 185 185 186 190 193 198 203 206 207 205 198 185 184 186 177 157 152 156 169 161 157 147 153 145 144 138 132 132 132 130 136 140 141 140 158 154 168 181 205 209 198 201 207 209 217 222 233 240 248 255 257 256 261 265 271 262 260 269 276 282 280 287 288 291 296 305 302 295 299 298 291 285 281
189 187 188 187 188 191 194 199 202 203 203 192 187 186 175 165 155 167 169 161 162 157 159 155 148 142 137 140 146 142 137 132 140 155 154 166 172 170 187 199 215 211 212 215 212 218 222 228 238 243 248 250 248 247 248 255 264 262 260 273 276 281 284 293 289 294 299 298 302 300 301 300 294 286
190 189 188 189 188 190 190 196 197 190 193 183 181 175 170 169 162 164 164 167 150 151 152 155 136 141 146 150 148 142 142 140 141 153 162 161 174 183 190 194 208 203 207 214 217 218 220 235 241 254 257 259 259 249 220 225 250 256 262 257 265 279 290 295 295 295 298 295 292 287 292 291 290 290
196 191 188 183 186 187 192 195 191 189 191 174 176 171 171 175 169 166 169 160 155 158 160 153 146 149 150 146 140 137 138 139 145 154 166 173 180 183 189 200 206 209 209 214 220 219 222 234 244 258 275 282 283 286 271 216 217 235 253 269 272 281 287 295 296 297 297 295 288 284 283 286 289 293
198 190 192 188 185 186 189 180 186 190 182 177 172 179 176 173 172 171 154 145 157 161 161 135 143 143 139 134 133 132 134 142 150 157 164 169 171 178 183 197 202 212 212 217 215 223 222 232 244 255 269 282 281 281 276 312 231 238 249 265 276 278 286 292 295 292 286 285 286 280 278 286 285 282
202 193 188 189 192 194 194 186 183 177 176 176 168 169 173 155 155 152 150 151 155 142 150 141 134 136 138 138 138 140 143 148 147 154 161 165 165 179 186 190 192 201 209 215 213 216 222 228 240 246 259 267 285 281 295 290 257 251 242 255 272 282 284 285 284 280 283 281 278 281 283 285 283 282
201 191 183 182 193 192 189 186 179 174 166 166 169 170 160 155 145 134 151 152 140 133 127 125 127 125 128 129 128 136 144 151 155 157 158 164 171 173 179 182 192 201 200 214 212 212 219 226 236 246 250 262 264 277 293 296 286 275 260 256 269 279 274 270 275 280 280 285 285 287 282 279 281 281
197 177 175 172 185 188 185 176 172 168 164 171 172 173 164 147 150 149 150 148 140 144 128 129 135 129 119 128 127 122 125 140 148 154 156 161 171 174 177 185 191 197 195 206 211 215 216 227 238 244 256 263 274 284 287 283 284 279 267 254 248 251 264 277 280 285 287 281 290 298 297 299 293 288
204 186 186 190 183 174 174 168 165 159 161 164 163 152 153 148 141 143 143 151 149 138 128 133 130 131 132 132 142 141 146 154 151 154 153 163 170 179 190 190 196 201 199 211 212 219 223 233 242 259 268 274 281 287 287 285 282 282 274 267 250 255 258 262 270 281 284 290 295 294 292 293 295 298
208 191 175 182 182 172 164 159 155 154 154 162 161 153 154 156 160 154 152 149 135 126 109 123 125 126 131 135 140 142 147 153 152 159 167 171 180 192 197 202 200 204 202 211 215 221 231 245 262 264 267 269 275 276 274 277 283 288 290 290 280 264 260 260 260 261 268 278 286 287 289 290 286 287
193 183 189 177 162 156 152 148 148 147 153 157 153 152 153 153 147 144 127 134 132 129 131 123 129 129 136 138 142 146 144 144 150 160 165 187 189 196 197 203 204 207 213 226 234 237 243 249 250 255 256 258 260 260 271 277 280 285 292 295 295 296 282 271 270 271 270 270 268 266 269 273 284 280
176 168 165 156 145 138 136 139 140 144 152 155 150 152 157 147 151 143 135 137 139 138 134 133 131 134 134 131 130 133 141 145 151 161 173 184 199 206 213 217 217 222 229 235 241 240 242 249 253 253 257 256 258 264 268 279 283 282 288 293 296 298 295 295 287 271 266 262 262 265 267 267 264 269
148 142 136 141 137 133 133 137 140 145 150 144 140 149 153 149 149 139 129 129 124 124 124 127 129 127 130 136 141 145 151 156 153 160 174 191 204 216 221 228 234 238 239 236 240 250 249 252 256 255 256 258 258 260 268 272 278 288 289 292 294 298 296 301 302 300 292 279 263 264 267 272 276 275